Hauptseite
METAR-TAF:

METAR-TAF

Flughäfen :

Bohrplattform

Troll A, Norwegen

Breite: 60-38-42N, Länge: 3-43-29E, Höhe: 20 m

Beobachtung

Neuester Wetterbericht von vor 31 Minuten, um 23:20 UTC
Wind 41 kt aus Süd/Südost
Temperatur 4°C
Luftfeuchtigkeit 65%
Luftdruck 996 hPa
Sichtweite 10 km oder mehr

METAR: ENQA 222320Z AUTO 16041KT 9999NDV OVC028/// 04/M02 Q0996 W04/S6

Zeit: 00:51 (23:51 UTC)


TAF: fehlend

Wetterbeobachtungen und Prognosen von mehr als 4000 Flughäfen (METAR und TAF Bericht).

Die verfügbaren Stationen werden durch gelbe und rote Markierungen auf der Karte dargestellt.

Führen Sie die Maus auf sie, um den Namen der Station zu sehen.

Darauf klicken, um die Beobachtung von Wetterbeobachtungen und Prognosen zu sehen.

Um die Karte zu ändern : klicken Sie auf den grünen Tasten mit einem schwarzen Kreuz Zum Vergrößern, auf den grünen Button mit einem Gedankenstrich zu verkleinern, oder auf die grünen Pfeile für benachbarte Karten.


METAR-TAF: